Location: Newark
(44.1906°N, 75.9681°W)
Time: 11:23:32
(UTC+00:00)

Envisat - Pass Details

Date: 02 February 2020
Orbit: 764 x 766 km, 98.1° (Epoch: 25 February)

Event Time Altitude Azimuth Distance (km) Brightness Sun altitude
Rises 11:15:00 0° 19° (NNE) 3,241 6.3 -12.1°
Reaches altitude 10° 11:17:26 10° 26° (NNE) 2,310 5.7 -11.7°
Maximum altitude 11:22:16 43° 98° (E) 1,071 4.4 -10.9°
Drops below altitude 10° 11:27:04 10° 169° (S) 2,293 5.8 -10.0°
Sets 11:29:28 0° 176° (S) 3,215 6.5 -9.6°
